Regional Weather Roundup
Issued by NWS

Home | Current Version | Previous Version | Text Only | Print | Product List | Glossary Off
Versions: 1 2 3 4 5 6 7 8 9 10 11 12 13 14 15 16 17 18 19 20 21 22 23 24 25 26 27 28 29 30 31 32 33 34 35 36 37 38 39 40 41 42 43 44 45 46 47 48 49 50

000
ASUS43 KBIS 100610
RWRND

NORTH DAKOTA REGIONAL WEATHER ROUNDUP
NATIONAL WEATHER SERVICE BISMARCK ND
1200 AM CST SAT DEC 10 2016

NOTE: "FAIR" INDICATES FEW OR NO CLOUDS BELOW 12,000 FEET WITH NO
SIGNIFICANT WEATHER AND/OR OBSTRUCTIONS TO VISIBILITY.


NDZ001>003-009>011-017-100700-
NORTHWEST NORTH DAKOTA

CITY           SKY/WX    TMP DP  RH WIND       PRES   REMARKS
WILLISTON      CLOUDY   -16 -22  74 CALM      30.42F
6HR MIN TEMP: -18; 6HR MAX TEMP:  -8;

MINOT          CLOUDY   -16 -21  78 SW8       30.47F WCI -34
MINOT AFB      CLOUDY   -23 -29  73 W6        30.47F WCI -39
$$

NDZ018>021-031>035-040>046-100700-
SOUTHWEST NORTH DAKOTA

CITY           SKY/WX    TMP DP  RH WIND       PRES   REMARKS
BISMARCK       CLOUDY   -17 -21  82 CALM      30.51F
6HR MIN TEMP: -21; 6HR MAX TEMP:  -6;

DICKINSON      CLOUDY   -16 -21  78 S6        30.32F WCI -31
GARRISON         N/A    -18 -23  77 N5        30.44F WCI -31
6HR MIN TEMP: -21; 6HR MAX TEMP: -11;

HETTINGER ARPT CLOUDY    -8 -12  83 SE5       30.34F WCI -19
$$

NDZ004>008-012>016-024-026-027-054-100700-
NORTHEAST NORTH DAKOTA

CITY           SKY/WX    TMP DP  RH WIND       PRES   REMARKS
GRAND FORKS    CLOUDY    -3  -8  79 NW7       30.56S WCI -16
GRND FRKS AFB  CLOUDY    -3 -10  73 N7        30.56S WCI -17
DEVILS LAKE    CLOUDY   -14 -18  82 W5        30.50F WCI -26
$$

NDZ022-023-025-028>030-036>039-047>053-100700-
SOUTHEAST NORTH DAKOTA

CITY           SKY/WX    TMP DP  RH WIND       PRES   REMARKS
FARGO          CLOUDY    -6 -13  71 W6        30.57R WCI -19
6HR MIN TEMP:  -6; 6HR MAX TEMP:   1;

JAMESTOWN      CLOUDY   -13 -18  78 W6        30.50F WCI -27
$$





USA.gov is the U.S. government's official web portal to all federal, state and local government web resources and services.